Regional Weather Roundup
Issued by NWS

Home | Current Version | Previous Version | Graphics & Text | Print | Product List | Glossary Off
Versions: 1 2 3 4 5 6 7 8 9 10 11 12 13 14 15 16 17 18 19 20 21 22 23 24 25 26 27 28 29 30 31 32 33 34 35 36 37 38 39 40 41 42 43 44 45 46 47 48 49 50

000
ASUS43 KFSD 182110
RWRSD

WEATHER ROUNDUP FOR SOUTH DAKOTA
NATIONAL WEATHER SERVICE SIOUX FALLS SD
400 PM CDT THU SEP 18 2014

NOTE: "FAIR" INDICATES FEW OR NO CLOUDS BELOW 12,000 FEET WITH NO
SIGNIFICANT WEATHER AND/OR OBSTRUCTIONS TO VISIBILITY.


SDZ001>005-009-010-012>017-182200-
NORTHWEST AND NORTH CENTRAL SOUTH DAKOTA

CITY           SKY/WX    TMP DP  RH WIND       PRES   REMARKS
BUFFALO          N/A     81  55  40 S7        29.72S
FAITH            N/A     79  63  57 S13       29.77F
MOBRIDGE       SUNNY     82  61  48 S18G26    29.75F
$$

SDZ012>016-024>037-041>051-057-063-072>074-182200-
SOUTHWEST AND SOUTH CENTRAL SOUTH DAKOTA

CITY           SKY/WX    TMP DP  RH WIND       PRES   REMARKS
RAPID CTY ARPT SUNNY     88  56  33 SE16G22   29.77F
PIERRE         SUNNY     83  60  45 S22G30    29.76F
CUSTER         SUNNY     85  37  18 SW9G20    29.95F
ELLSWORTH AFB  MOSUNNY   88  58  36 SE14      29.77F
PHILIP         MOSUNNY   86  61  42 S10       29.74F
PINE RIDGE     SUNNY     89  56  32 S12       29.81F
WINNER         FAIR      83  56  39 S23G35    29.84F
$$

SDZ004>011-016>023-039-040-182200-
NORTHEAST SOUTH DAKOTA

CITY           SKY/WX    TMP DP  RH WIND       PRES   REMARKS
ABERDEEN       MOSUNNY   78  62  57 S22G30    29.83F
WATERTOWN      SUNNY     75  57  53 S17G26    29.91F
SISSETON         N/A     76  61  59 S12G22    29.86F
$$

SDZ017-020-022-023-036>040-048>070-182200-
SOUTHEAST SOUTH DAKOTA

CITY           SKY/WX    TMP DP  RH WIND       PRES   REMARKS
SIOUX FALLS    MOSUNNY   77  54  44 S16G24    29.94F
HURON          MOSUNNY   76  60  57 S17G28    29.87F
CHAMBERLAIN    MOSUNNY   76  61  58 S21G26    29.85F
MITCHELL       MOSUNNY   77  61  57 S15       29.90F
YANKTON        SUNNY     73  57  56 S15G22    29.93F
$$

ABBREVIATIONS USED IN REMARKS
   TC - TEMPERATURE IN CELSIUS
  WCI - WIND CHILL INDEX
   HX - HEAT INDEX
  VSB - VISIBILITY




USA.gov is the U.S. government's official web portal to all federal, state and local government web resources and services.